Location: Il Ritiro
(43.4167°N, 13.1333°E)
Time: 07:55:28
(UTC+00:00)

Cosmos 1125 Rocket - Pass Details

Date: 05 July 2020
Orbit: 757 x 780 km, 74.0° (Epoch: 05 August)

Event Time Altitude Azimuth Distance (km) Brightness Sun altitude
Rises 19:44:31 0° 336° (NNW) 3,242 8.2 -8.5°
Reaches altitude 10° 19:46:55 10° 333° (NNW) 2,315 7.3 -8.8°
Maximum altitude 19:52:06 63° 254° (WSW) 863 3.9 -9.5°
Drops below altitude 10° 19:57:17 10° 174° (S) 2,313 5.5 -10.2°
Enters shadow 19:58:05 - 173° (S) 2,621 5.8 -10.3°
